ALAKES messages


fromtotime message
ALAKES KB7DZR-10 09/17 18:46:08z Send another TEMP:57 WIND 244 AT 0 GUST 0 *{ag
KB7DZR-10 ALAKES 09/17 18:45:56z Reply cmd wxinfo{IE}
ALAKES KB7DZR-10 09/17 18:42:48z Send another TEMP:53 WIND 244 AT 0 GUST 0 BARO 10111 *{af
KB7DZR-10 ALAKES 09/17 18:42:45z Reply cmd wxinfo{ID}
ALAKES KB7DZR-10 09/17 18:23:32z Send another TEMP:58 WIND 244 AT 0 GUST 0 BARO 10113 *{ae
ALAKES KB7DZR-10 09/17 18:19:41z Send another TEMP:58 WIND 244 AT 0 GUST 0 BARO 10111 *{ad
KB7DZR-10 ALAKES 09/17 18:19:28z Reply cmd wxinfo{IC}
ALAKES KB7DZR-10 09/17 18:09:10z Send another TEMP:80F VOLT:14.25 RX:9 FCS:14 CFG:1 PWD:0 DIGI:6{ac
KB7DZR-10 ALAKES 09/17 18:08:58z Reply cmd info{IB}
ALAKES KB7DZR-10 09/17 18:08:40z Send another TEMP:58 WIND 244 AT 0 GUST 0 BARO 10119 *{ab
KB7DZR-10 ALAKES 09/17 18:08:36z Reply cmd wxinfo{IA}
KB7DZR-10 ALAKES 09/17 18:07:42z Reply cmd reset{HZ}
ALAKES KB7DZR-10 09/17 18:07:28z Send another TEMP:58 WIND 244 AT 0 GUST 0 BARO 10107 *{bd
KB7DZR-10 ALAKES 09/17 18:07:24z Reply cmd wxinfo{HY}
ALAKES KB7DZR-10 09/17 18:04:21z Send another TEMP:58 WIND 244 AT 0 GUST 0 BARO 10111 *{bc
KB7DZR-10 ALAKES 09/17 18:04:17z Reply cmd wxinfo{HX}
ALAKES KB7DZR-10 09/17 18:03:29z Send another TEMP:58 WIND 244 AT 0 GUST 0 BARO 10107 *{bb
KB7DZR-10 ALAKES 09/17 18:03:24z Reply cmd wxinfo{HW}
ALAKES KB7DZR-10 09/16 21:44:52z Send another TEMP:89F VOLT:13.55 RX:2408 FCS:29311 CFG:1 PWD:0 DIGI:864{ba
KB7DZR-10 ALAKES 09/16 21:44:39z Reply cmd info{YX}
KB7DZR-10 ALAKES 09/16 04:30:12z Reply cmd reset{HU}
KB7DZR-10 ALAKES 09/16 04:25:56z Reply cmd info{HT}
ALAKES KB7DZR-10 09/03 12:49:24z Send another TEMP:29 WIND 244 AT 0 GUST 0 BARO 10079 *{ap
KB7DZR-10 ALAKES 09/03 12:49:20z Reply cmd wxinfo{IS}
ALAKES KB7DZR-10 09/03 12:48:45z Send another TEMP:64F VOLT:13.49 RX:45058 FCS:47680 CFG:1 PWD:0 DIGI:15036{ao
KB7DZR-10 ALAKES 09/03 12:48:41z Reply cmd info{IR}
ALAKES KB7DZR-10 09/01 13:48:00z Send another TXLEVEL 15{an
KB7DZR-10 ALAKES 09/01 13:47:56z Reply cmd txl 15{OJ}
ALAKES KB7DZR-10 09/01 13:47:47z Send another TXLEVEL 8{am
KB7DZR-10 ALAKES 09/01 13:47:41z Reply cmd txl{OI}
ALAKES KB7DZR-10 08/31 13:52:41z Send another TXLEVEL 8{al
KB7DZR-10 ALAKES 08/31 13:52:37z Reply cmd txl 8{OH}
ALAKES KB7DZR-10 08/31 13:50:55z Send another TXLEVEL 7{ak
KB7DZR-10 ALAKES 08/31 13:50:50z Reply cmd txl 7{OG}
ALAKES KB7DZR-10 08/31 13:50:11z Send another TXLEVEL 8{aj
KB7DZR-10 ALAKES 08/31 13:49:59z Reply cmd txl 8{OF}
ALAKES KB7DZR-10 08/31 13:49:12z Send another Invalid Command{ai
KB7DZR-10 ALAKES 08/31 13:49:00z Reply cmd xml 8{OE}
KB7DZR-10 ALAKES 08/31 13:47:31z Reply cmd txd 18{OD}
ALAKES KB7DZR-10 08/31 13:31:37z Send another TEMP:61F VOLT:13.35 RX:3355 FCS:9235 CFG:1 PWD:0 DIGI:967{ag
KB7DZR-10 ALAKES 08/31 13:31:24z Reply cmd info{OC}
ALAKES KB7DZR-10 08/31 13:30:47z Send another TXDELAY 15{af
KB7DZR-10 ALAKES 08/31 13:30:43z Reply cmd txd 15{OB}
ALAKES KB7DZR-10 08/31 13:30:31z Send another TXDELAY 17{ae
KB7DZR-10 ALAKES 08/31 13:30:28z Reply cmd txd{OA}
ALAKES KB7DZR-10 08/31 13:30:10z Send another TXLEVEL 10{ad
KB7DZR-10 ALAKES 08/31 13:29:58z Reply cmd txl 10{NZ}
ALAKES KB7DZR-10 08/31 13:28:48z Send another TXLEVEL 4{ac
KB7DZR-10 ALAKES 08/31 13:28:44z Reply cmd txl 4{NY}
KB7DZR-10 ALAKES 08/31 13:28:25z Reply cmd txl{NX}
ALAKES KB7DZR-10 08/31 05:25:54z Send another TXLEVEL 10{ab
KB7DZR-10 ALAKES 08/31 05:25:43z Reply cmd txl 10{BA}
KB7DZR-10 ALAKES 08/31 05:24:17z Reply cmd reset{AZ}
ALAKES KB7DZR-10 08/31 05:23:59z Send another TXLEVEL 15{dh
KB7DZR-10 ALAKES 08/31 05:23:56z Reply cmd txl 15{AY}
ALAKES KB7DZR-10 08/31 05:23:30z Send another TEMP:70F VOLT:13.41 RX:9430 FCS:23271 CFG:1 PWD:0 DIGI:3152{dg
KB7DZR-10 ALAKES 08/31 05:23:26z Reply cmd info{AX}
ALAKES KB7DZR-10 08/31 05:23:12z Send another TXDELAY 17{df
KB7DZR-10 ALAKES 08/31 05:23:09z Reply cmd txd 17{AW}
ALAKES KB7DZR-10 08/31 05:22:33z Send another TXDELAY 18{de
KB7DZR-10 ALAKES 08/31 05:22:30z Reply cmd txd{AV}
ALAKES KB7DZR-10 08/31 05:21:28z Send another TXLEVEL 10{dd
KB7DZR-10 ALAKES 08/31 05:21:25z Reply cmd txl 10{AU}
ALAKES KB7DZR-10 08/31 05:20:09z Send another TEMP:69F VOLT:13.41 RX:9373 FCS:23158 CFG:1 PWD:0 DIGI:3138{dc
KB7DZR-10 ALAKES 08/31 05:19:56z Reply cmd info{AT}
ALAKES KB7DZR-10 08/31 05:19:27z Send another TXLEVEL 5{db
KB7DZR-10 ALAKES 08/31 05:19:24z Reply cmd txl 5{AS}
ALAKES KB7DZR-10 08/31 05:18:21z Send another TXLEVEL 15{da
KB7DZR-10 ALAKES 08/31 05:18:17z Reply cmd txl 15{AR}
ALAKES KB7DZR-10 08/31 05:16:53z Send another TXLEVEL 10{cp
KB7DZR-10 ALAKES 08/31 05:16:50z Reply cmd txl 10{AQ}
ALAKES KB7DZR-10 08/31 05:15:45z Send another TXLEVEL 7{co
KB7DZR-10 ALAKES 08/31 05:15:33z Reply cmd txl 7{AP}
ALAKES KB7DZR-10 08/31 05:14:48z Send another TXLEVEL 10{cn
KB7DZR-10 ALAKES 08/31 05:14:36z Reply cmd txl 10{AO}
ALAKES KB7DZR-10 08/31 05:13:11z Send another TEMP:69F VOLT:13.37 RX:9262 FCS:22997 CFG:1 PWD:0 DIGI:3103{cm
KB7DZR-10 ALAKES 08/31 05:13:06z Reply cmd info{AN}
ALAKES KB7DZR-10 08/31 05:12:47z Send another TXLEVEL 8{cl
KB7DZR-10 ALAKES 08/31 05:12:43z Reply cmd txl 8{AM}
ALAKES KB7DZR-10 08/31 05:11:41z Send another TXLEVEL 12{ck
KB7DZR-10 ALAKES 08/31 05:11:38z Reply cmd txl 12{AL}
ALAKES KB7DZR-10 08/31 05:10:49z Send another TXDELAY 18{cj
KB7DZR-10 ALAKES 08/31 05:10:45z Reply cmd txd 18{AK}
ALAKES KB7DZR-10 08/31 05:03:22z Send another TXDELAY 17{ci
KB7DZR-10 ALAKES 08/31 05:02:54z Reply cmd txd 17{AJ}
ALAKES KB7DZR-10 08/31 05:02:47z Send another TXLEVEL 10{ch
KB7DZR-10 ALAKES 08/31 05:02:41z Reply cmd txl 10{AI}
ALAKES KB7DZR-10 08/31 05:02:18z Send another TEMP:70F VOLT:13.41 RX:9111 FCS:22725 CFG:1 PWD:0 DIGI:3067{cf
KB7DZR-10 ALAKES 08/31 05:02:14z Reply cmd info{AH}
ALAKES KB7DZR-10 08/31 05:00:53z Send another TXLEVEL 9{ce
KB7DZR-10 ALAKES 08/31 05:00:50z Reply cmd txl 9{AG}
ALAKES KB7DZR-10 08/31 05:00:34z Send another TXLEVEL 10{cd
KB7DZR-10 ALAKES 08/31 05:00:30z Reply cmd txl{AF}
ALAKES KB7DZR-10 08/31 05:00:00z Send another TXDELAY 18{cc
KB7DZR-10 ALAKES 08/31 04:59:56z Reply cmd txd 18{AE}
ALAKES KB7DZR-10 08/31 04:52:19z Send another TEMP:70F VOLT:13.45 RX:8982 FCS:22462 CFG:1 PWD:0 DIGI:3028{cb
KB7DZR-10 ALAKES 08/31 04:52:14z Reply cmd info{OQ}
ALAKES KB7DZR-10 08/31 04:51:46z Send another TXLEVEL 10{ca
KB7DZR-10 ALAKES 08/31 04:51:33z Reply cmd txl 10{OP}
ALAKES KB7DZR-10 08/31 04:51:18z Send another TXLEVEL 15{bp